Year,Month,Day,Hour,Minute,Value (Times are PST for temperature in C)
2016,08,13,00,00,22.80
2016,08,13,00,01,22.80
2016,08,13,00,02,22.70
2016,08,13,00,03,22.70
2016,08,13,00,04,22.70
2016,08,13,00,05,22.70
2016,08,13,00,06,22.70
2016,08,13,00,07,22.70
2016,08,13,00,08,22.70
2016,08,13,00,09,22.70
2016,08,13,00,10,22.70
2016,08,13,00,11,22.60
2016,08,13,00,12,22.60
2016,08,13,00,13,22.60
2016,08,13,00,14,22.60
2016,08,13,00,15,22.60
2016,08,13,00,16,22.60
2016,08,13,00,17,22.50
2016,08,13,00,18,22.50
2016,08,13,00,19,22.50
2016,08,13,00,20,22.40
2016,08,13,00,21,22.40
2016,08,13,00,22,22.40
2016,08,13,00,23,22.40
2016,08,13,00,24,22.40
2016,08,13,00,25,22.40
2016,08,13,00,26,22.40
2016,08,13,00,27,22.40
2016,08,13,00,28,22.40
2016,08,13,00,29,22.40
2016,08,13,00,30,22.40
2016,08,13,00,31,22.40
2016,08,13,00,32,22.40
2016,08,13,00,33,22.40
2016,08,13,00,34,22.40
2016,08,13,00,35,22.40
2016,08,13,00,36,22.40
2016,08,13,00,37,22.40
2016,08,13,00,38,22.40
2016,08,13,00,39,22.40
2016,08,13,00,40,22.40
2016,08,13,00,41,22.40
2016,08,13,00,42,22.40
2016,08,13,00,43,22.30
2016,08,13,00,44,22.30
2016,08,13,00,45,22.30
2016,08,13,00,46,22.30
2016,08,13,00,47,22.30
2016,08,13,00,48,22.30
2016,08,13,00,49,22.20
2016,08,13,00,50,22.20
2016,08,13,00,51,22.20
2016,08,13,00,52,22.20
2016,08,13,00,53,22.20
2016,08,13,00,54,22.20
2016,08,13,00,55,22.20
2016,08,13,00,56,22.10
2016,08,13,00,57,22.10
2016,08,13,00,58,22.10
2016,08,13,00,59,22.10
2016,08,13,01,00,22.10
2016,08,13,01,01,22.10
2016,08,13,01,02,22.10
2016,08,13,01,03,22.00
2016,08,13,01,04,22.00
2016,08,13,01,05,22.00
2016,08,13,01,06,21.90
2016,08,13,01,07,21.90
2016,08,13,01,08,21.90
2016,08,13,01,09,21.90
2016,08,13,01,10,21.80
2016,08,13,01,11,21.80
2016,08,13,01,12,21.80
2016,08,13,01,13,21.80
2016,08,13,01,14,21.70
2016,08,13,01,15,21.70
2016,08,13,01,16,21.70
2016,08,13,01,17,21.60
2016,08,13,01,18,21.60
2016,08,13,01,19,21.50
2016,08,13,01,20,21.50
2016,08,13,01,21,21.40
2016,08,13,01,22,21.40
2016,08,13,01,23,21.40
2016,08,13,01,24,21.40
2016,08,13,01,25,21.30
2016,08,13,01,26,21.30
2016,08,13,01,27,21.30
2016,08,13,01,28,21.30
2016,08,13,01,29,21.30
2016,08,13,01,30,21.30
2016,08,13,01,31,21.30
2016,08,13,01,32,21.30
2016,08,13,01,33,21.30
2016,08,13,01,34,21.30
2016,08,13,01,35,21.30
2016,08,13,01,36,21.30
2016,08,13,01,37,21.30
2016,08,13,01,38,21.30
2016,08,13,01,39,21.30
2016,08,13,01,40,21.30
2016,08,13,01,41,21.30
2016,08,13,01,42,21.30
2016,08,13,01,43,21.30
2016,08,13,01,44,21.30
2016,08,13,01,45,21.30
2016,08,13,01,46,21.30
2016,08,13,01,47,21.40
2016,08,13,01,48,21.40
2016,08,13,01,49,21.40
2016,08,13,01,50,21.40
2016,08,13,01,51,21.50
2016,08,13,01,52,21.50
2016,08,13,01,53,21.50
2016,08,13,01,54,21.60
2016,08,13,01,55,21.60
2016,08,13,01,56,21.60
2016,08,13,01,57,21.60
2016,08,13,01,58,21.60
2016,08,13,01,59,21.60
2016,08,13,02,00,21.60
2016,08,13,02,01,21.60
2016,08,13,02,02,21.60
2016,08,13,02,03,21.60
2016,08,13,02,04,21.60
2016,08,13,02,05,21.60
2016,08,13,02,06,21.70
2016,08,13,02,07,21.70
2016,08,13,02,08,21.70
2016,08,13,02,09,21.70
2016,08,13,02,10,21.70
2016,08,13,02,11,21.80
2016,08,13,02,12,21.80
2016,08,13,02,13,21.80
2016,08,13,02,14,21.80
2016,08,13,02,15,21.80
2016,08,13,02,16,21.80
2016,08,13,02,17,21.70
2016,08,13,02,18,21.70
2016,08,13,02,19,21.70
2016,08,13,02,20,21.70
2016,08,13,02,21,21.70
2016,08,13,02,22,21.70
2016,08,13,02,23,21.60
2016,08,13,02,24,21.60
2016,08,13,02,25,21.60
2016,08,13,02,26,21.60
2016,08,13,02,27,21.50
2016,08,13,02,28,21.50
2016,08,13,02,29,21.50
2016,08,13,02,30,21.40
2016,08,13,02,31,21.40
2016,08,13,02,32,21.40
2016,08,13,02,33,21.40
2016,08,13,02,34,21.40
2016,08,13,02,35,21.40
2016,08,13,02,36,21.30
2016,08,13,02,37,21.30
2016,08,13,02,38,21.30
2016,08,13,02,39,21.30
2016,08,13,02,40,21.30
2016,08,13,02,41,21.20
2016,08,13,02,42,21.20
2016,08,13,02,43,21.20
2016,08,13,02,44,21.20
2016,08,13,02,45,21.20
2016,08,13,02,46,21.20
2016,08,13,02,47,21.20
2016,08,13,02,48,21.20
2016,08,13,02,49,21.20
2016,08,13,02,50,21.20
2016,08,13,02,51,21.10
2016,08,13,02,52,21.20
2016,08,13,02,53,21.20
2016,08,13,02,54,21.20
2016,08,13,02,55,21.10
2016,08,13,02,56,21.10
2016,08,13,02,57,21.10
2016,08,13,02,58,21.10
2016,08,13,02,59,21.10
2016,08,13,03,00,21.00
2016,08,13,03,01,21.00
2016,08,13,03,02,21.00
2016,08,13,03,03,20.90
2016,08,13,03,04,20.90
2016,08,13,03,05,20.90
2016,08,13,03,06,20.80
2016,08,13,03,07,20.80
2016,08,13,03,08,20.80
2016,08,13,03,09,20.80
2016,08,13,03,10,20.80
2016,08,13,03,11,20.70
2016,08,13,03,12,20.70
2016,08,13,03,13,20.70
2016,08,13,03,14,20.70
2016,08,13,03,15,20.70
2016,08,13,03,16,20.60
2016,08,13,03,17,20.60
2016,08,13,03,18,20.60
2016,08,13,03,19,20.60
2016,08,13,03,20,20.60
2016,08,13,03,21,20.60
2016,08,13,03,22,20.50
2016,08,13,03,23,20.50
2016,08,13,03,24,20.50
2016,08,13,03,25,20.50
2016,08,13,03,26,20.50
2016,08,13,03,27,20.40
2016,08,13,03,28,20.40
2016,08,13,03,29,20.40
2016,08,13,03,30,20.40
2016,08,13,03,31,20.30
2016,08,13,03,32,20.30
2016,08,13,03,33,20.30
2016,08,13,03,34,20.30
2016,08,13,03,35,20.30
2016,08,13,03,36,20.20
2016,08,13,03,37,20.20
2016,08,13,03,38,20.20
2016,08,13,03,39,20.20
2016,08,13,03,40,20.20
2016,08,13,03,41,20.10
2016,08,13,03,42,20.10
2016,08,13,03,43,20.10
2016,08,13,03,44,20.00
2016,08,13,03,45,20.00
2016,08,13,03,46,20.00
2016,08,13,03,47,19.90
2016,08,13,03,48,19.90
2016,08,13,03,49,19.90
2016,08,13,03,50,19.90
2016,08,13,03,51,19.80
2016,08,13,03,52,19.80
2016,08,13,03,53,19.80
2016,08,13,03,54,19.80
2016,08,13,03,55,19.70
2016,08,13,03,56,19.70
2016,08,13,03,57,19.70
2016,08,13,03,58,19.70
2016,08,13,03,59,19.70
2016,08,13,04,00,19.60
2016,08,13,04,01,19.60
2016,08,13,04,02,19.50
2016,08,13,04,03,19.50
2016,08,13,04,04,19.50
2016,08,13,04,05,19.40
2016,08,13,04,06,19.40
2016,08,13,04,07,19.30
2016,08,13,04,08,19.30
2016,08,13,04,09,19.30
2016,08,13,04,10,19.30
2016,08,13,04,11,19.30
2016,08,13,04,12,19.20
2016,08,13,04,13,19.20
2016,08,13,04,14,19.20
2016,08,13,04,15,19.20
2016,08,13,04,16,19.20
2016,08,13,04,17,19.20
2016,08,13,04,18,19.20
2016,08,13,04,19,19.20
2016,08,13,04,20,19.20
2016,08,13,04,21,19.20
2016,08,13,04,22,19.20
2016,08,13,04,23,19.30
2016,08,13,04,24,19.30
2016,08,13,04,25,19.30
2016,08,13,04,26,19.30
2016,08,13,04,27,19.30
2016,08,13,04,28,19.30
2016,08,13,04,29,19.30
2016,08,13,04,30,19.30
2016,08,13,04,31,19.20
2016,08,13,04,32,19.20
2016,08,13,04,33,19.20
2016,08,13,04,34,19.20
2016,08,13,04,35,19.20
2016,08,13,04,36,19.20
2016,08,13,04,37,19.10
2016,08,13,04,38,19.10
2016,08,13,04,39,19.10
2016,08,13,04,40,19.10
2016,08,13,04,41,19.10
2016,08,13,04,42,19.10
2016,08,13,04,43,19.10
2016,08,13,04,44,19.10
2016,08,13,04,45,19.00
2016,08,13,04,46,19.00
2016,08,13,04,47,19.00
2016,08,13,04,48,19.00
2016,08,13,04,49,19.00
2016,08,13,04,50,18.90
2016,08,13,04,51,18.90
2016,08,13,04,52,18.90
2016,08,13,04,53,18.90
2016,08,13,04,54,18.90
2016,08,13,04,55,18.90
2016,08,13,04,56,18.90
2016,08,13,04,57,18.80
2016,08,13,04,58,18.80
2016,08,13,04,59,18.80
2016,08,13,05,00,18.80
2016,08,13,05,01,18.80
2016,08,13,05,02,18.80
2016,08,13,05,03,18.80
2016,08,13,05,04,18.70
2016,08,13,05,05,18.70
2016,08,13,05,06,18.60
2016,08,13,05,07,18.60
2016,08,13,05,08,18.60
2016,08,13,05,09,18.60
2016,08,13,05,10,18.50
2016,08,13,05,11,18.50
2016,08,13,05,12,18.40
2016,08,13,05,13,18.40
2016,08,13,05,14,18.40
2016,08,13,05,15,18.30
2016,08,13,05,16,18.30
2016,08,13,05,17,18.30
2016,08,13,05,18,18.30
2016,08,13,05,19,18.30
2016,08,13,05,20,18.30
2016,08,13,05,21,18.30
2016,08,13,05,22,18.30
2016,08,13,05,23,18.20
2016,08,13,05,24,18.20
2016,08,13,05,25,18.20
2016,08,13,05,26,18.20
2016,08,13,05,27,18.20
2016,08,13,05,28,18.20
2016,08,13,05,29,18.10
2016,08,13,05,30,18.10
2016,08,13,05,31,18.10
2016,08,13,05,32,18.10
2016,08,13,05,33,18.10
2016,08,13,05,34,18.10
2016,08,13,05,35,18.10
2016,08,13,05,36,18.10
2016,08,13,05,37,18.10
2016,08,13,05,38,18.10
2016,08,13,05,39,18.00
2016,08,13,05,40,18.00
2016,08,13,05,41,18.00
2016,08,13,05,42,18.00
2016,08,13,05,43,18.00
2016,08,13,05,44,18.00
2016,08,13,05,45,18.00
2016,08,13,05,46,18.00
2016,08,13,05,47,18.00
2016,08,13,05,48,18.10
2016,08,13,05,49,18.10
2016,08,13,05,50,18.10
2016,08,13,05,51,18.10
2016,08,13,05,52,18.10
2016,08,13,05,53,18.10
2016,08,13,05,54,18.10
2016,08,13,05,55,18.10
2016,08,13,05,56,18.10
2016,08,13,05,57,18.10
2016,08,13,05,58,18.10
2016,08,13,05,59,18.10
2016,08,13,06,00,18.10
2016,08,13,06,01,18.10
2016,08,13,06,02,18.10
2016,08,13,06,03,18.10
2016,08,13,06,04,18.10
2016,08,13,06,05,18.10
2016,08,13,06,06,18.10
2016,08,13,06,07,18.10
2016,08,13,06,08,18.10
2016,08,13,06,09,18.10
2016,08,13,06,10,18.10
2016,08,13,06,11,18.10
2016,08,13,06,12,18.10
2016,08,13,06,13,18.10
2016,08,13,06,14,18.10
2016,08,13,06,15,18.10
2016,08,13,06,16,18.10
2016,08,13,06,17,18.10
2016,08,13,06,18,18.20
2016,08,13,06,19,18.20
2016,08,13,06,20,18.20
2016,08,13,06,21,18.20
2016,08,13,06,22,18.20
2016,08,13,06,23,18.30
2016,08,13,06,24,18.30
2016,08,13,06,25,18.30
2016,08,13,06,26,18.30
2016,08,13,06,27,18.30
2016,08,13,06,28,18.30
2016,08,13,06,29,18.30
2016,08,13,06,30,18.30
2016,08,13,06,31,18.30
2016,08,13,06,32,18.30
2016,08,13,06,33,18.30
2016,08,13,06,34,18.20
2016,08,13,06,35,18.20
2016,08,13,06,36,18.20
2016,08,13,06,37,18.20
2016,08,13,06,38,18.20
2016,08,13,06,39,18.20
2016,08,13,06,40,18.20
2016,08,13,06,41,18.20
2016,08,13,06,42,18.10
2016,08,13,06,43,18.10
2016,08,13,06,44,18.10
2016,08,13,06,45,18.20
2016,08,13,06,46,18.20
2016,08,13,06,47,18.20
2016,08,13,06,48,18.20
2016,08,13,06,49,18.20
2016,08,13,06,50,18.20
2016,08,13,06,51,18.30
2016,08,13,06,52,18.30
2016,08,13,06,53,18.30
2016,08,13,06,54,18.30
2016,08,13,06,55,18.30
2016,08,13,06,56,18.30
2016,08,13,06,57,18.30
2016,08,13,06,58,18.30
2016,08,13,06,59,18.30
2016,08,13,07,00,18.30
2016,08,13,07,01,18.30
2016,08,13,07,02,18.20
2016,08,13,07,03,18.20
2016,08,13,07,04,18.20
2016,08,13,07,05,18.20
2016,08,13,07,06,18.20
2016,08,13,07,07,18.20
2016,08,13,07,08,18.20
2016,08,13,07,09,18.20
2016,08,13,07,10,18.20
2016,08,13,07,11,18.20
2016,08,13,07,12,18.20
2016,08,13,07,13,18.20
2016,08,13,07,14,18.20
2016,08,13,07,15,18.20
2016,08,13,07,16,18.20
2016,08,13,07,17,18.20
2016,08,13,07,18,18.20
2016,08,13,07,19,18.20
2016,08,13,07,20,18.20
2016,08,13,07,21,18.20
2016,08,13,07,22,18.20
2016,08,13,07,23,18.20
2016,08,13,07,24,18.20
2016,08,13,07,25,18.20
2016,08,13,07,26,18.20
2016,08,13,07,27,18.30
2016,08,13,07,28,18.30
2016,08,13,07,29,18.30
2016,08,13,07,30,18.40
2016,08,13,07,31,18.40
2016,08,13,07,32,18.40
2016,08,13,07,33,18.40
2016,08,13,07,34,18.40
2016,08,13,07,35,18.50
2016,08,13,07,36,18.50
2016,08,13,07,37,18.60
2016,08,13,07,38,18.60
2016,08,13,07,39,18.60
2016,08,13,07,40,18.60
2016,08,13,07,41,18.70
2016,08,13,07,42,18.70
2016,08,13,07,43,18.80
2016,08,13,07,44,18.80
2016,08,13,07,45,18.80
2016,08,13,07,46,18.90
2016,08,13,07,47,18.90
2016,08,13,07,48,19.00
2016,08,13,07,49,19.00
2016,08,13,07,50,19.10
2016,08,13,07,51,19.10
2016,08,13,07,52,19.20
2016,08,13,07,53,19.20
2016,08,13,07,54,19.20
2016,08,13,07,55,19.20
2016,08,13,07,56,19.30
2016,08,13,07,57,19.30
2016,08,13,07,58,19.30
2016,08,13,07,59,19.40
2016,08,13,08,00,19.40
2016,08,13,08,01,19.50
2016,08,13,08,02,19.50
2016,08,13,08,03,19.60
2016,08,13,08,04,19.60
2016,08,13,08,05,19.70
2016,08,13,08,06,19.70
2016,08,13,08,07,19.70
2016,08,13,08,08,19.70
2016,08,13,08,09,19.70
2016,08,13,08,10,19.80
2016,08,13,08,11,19.80
2016,08,13,08,12,19.80
2016,08,13,08,13,19.80
2016,08,13,08,14,19.80
2016,08,13,08,15,19.80
2016,08,13,08,16,19.80
2016,08,13,08,17,19.80
2016,08,13,08,18,19.80
2016,08,13,08,19,19.80
2016,08,13,08,20,19.70
2016,08,13,08,21,19.70
2016,08,13,08,22,19.70
2016,08,13,08,23,19.70
2016,08,13,08,24,19.70
2016,08,13,08,25,19.60
2016,08,13,08,26,19.60
2016,08,13,08,27,19.60
2016,08,13,08,28,19.60
2016,08,13,08,29,19.60
2016,08,13,08,30,19.60
2016,08,13,08,31,19.60
2016,08,13,08,32,19.60
2016,08,13,08,33,19.70
2016,08,13,08,34,19.70
2016,08,13,08,35,19.80
2016,08,13,08,36,19.80
2016,08,13,08,37,19.80
2016,08,13,08,38,19.90
2016,08,13,08,39,19.90
2016,08,13,08,40,19.90
2016,08,13,08,41,19.90
2016,08,13,08,42,20.00
2016,08,13,08,43,20.00
2016,08,13,08,44,20.00
2016,08,13,08,45,20.00
2016,08,13,08,46,20.00
2016,08,13,08,47,20.00
2016,08,13,08,48,20.00
2016,08,13,08,49,20.10
2016,08,13,08,50,20.10
2016,08,13,08,51,20.00
2016,08,13,08,52,20.00
2016,08,13,08,53,20.00
2016,08,13,08,54,20.00
2016,08,13,08,55,19.90
2016,08,13,08,56,19.90
2016,08,13,08,57,19.90
2016,08,13,08,58,19.90
2016,08,13,08,59,19.90
2016,08,13,09,00,19.90
2016,08,13,09,01,19.90
2016,08,13,09,02,19.90
2016,08,13,09,03,20.00
2016,08,13,09,04,20.00
2016,08,13,09,05,20.10
2016,08,13,09,06,20.10
2016,08,13,09,07,20.10
2016,08,13,09,08,20.20
2016,08,13,09,09,20.20
2016,08,13,09,10,20.20
2016,08,13,09,11,20.20
2016,08,13,09,12,20.20
2016,08,13,09,13,20.30
2016,08,13,09,14,20.30
2016,08,13,09,15,20.30
2016,08,13,09,16,20.30
2016,08,13,09,17,20.40
2016,08,13,09,18,20.40
2016,08,13,09,19,20.40
2016,08,13,09,20,20.50
2016,08,13,09,21,20.60
2016,08,13,09,22,20.60
2016,08,13,09,23,20.70
2016,08,13,09,24,20.80
2016,08,13,09,25,20.80
2016,08,13,09,26,20.80
2016,08,13,09,27,20.80
2016,08,13,09,28,20.80
2016,08,13,09,29,20.80
2016,08,13,09,30,20.90
2016,08,13,09,31,20.90
2016,08,13,09,32,20.90
2016,08,13,09,33,20.80
2016,08,13,09,34,20.80
2016,08,13,09,35,20.80
2016,08,13,09,36,20.80
2016,08,13,09,37,20.80
2016,08,13,09,38,20.80
2016,08,13,09,39,20.80
2016,08,13,09,40,20.80
2016,08,13,09,41,20.90
2016,08,13,09,42,20.90
2016,08,13,09,43,20.90
2016,08,13,09,44,21.00
2016,08,13,09,45,21.00
2016,08,13,09,46,21.00
2016,08,13,09,47,21.10
2016,08,13,09,48,21.10
2016,08,13,09,49,21.20
2016,08,13,09,50,21.30
2016,08,13,09,51,21.30
2016,08,13,09,52,21.30
2016,08,13,09,53,21.30
2016,08,13,09,54,21.30
2016,08,13,09,55,21.40
2016,08,13,09,56,21.40
2016,08,13,09,57,21.40
2016,08,13,09,58,21.40
2016,08,13,09,59,21.30
2016,08,13,10,00,21.40
2016,08,13,10,01,21.40
2016,08,13,10,02,21.40
2016,08,13,10,03,21.40
2016,08,13,10,04,21.50
2016,08,13,10,05,21.50
2016,08,13,10,06,21.50
2016,08,13,10,07,21.60
2016,08,13,10,08,21.60
2016,08,13,10,09,21.60
2016,08,13,10,10,21.60
2016,08,13,10,11,21.50
2016,08,13,10,12,21.40
2016,08,13,10,13,21.30
2016,08,13,10,14,21.30
2016,08,13,10,15,21.20
2016,08,13,10,16,21.10
2016,08,13,10,17,21.00
2016,08,13,10,18,20.90
2016,08,13,10,19,20.80
2016,08,13,10,20,20.70
2016,08,13,10,21,20.60
2016,08,13,10,22,20.50
2016,08,13,10,23,20.50
2016,08,13,10,24,20.50
2016,08,13,10,25,20.50
2016,08,13,10,26,20.50
2016,08,13,10,27,20.50
2016,08,13,10,28,20.50
2016,08,13,10,29,20.60
2016,08,13,10,30,20.70
2016,08,13,10,31,20.80
2016,08,13,10,32,20.80
2016,08,13,10,33,20.90
2016,08,13,10,34,21.00
2016,08,13,10,35,21.10
2016,08,13,10,36,21.20
2016,08,13,10,37,21.30
2016,08,13,10,38,21.30
2016,08,13,10,39,21.40
2016,08,13,10,40,21.50
2016,08,13,10,41,21.50
2016,08,13,10,42,21.60
2016,08,13,10,43,21.50
2016,08,13,10,44,21.50
2016,08,13,10,45,21.40
2016,08,13,10,46,21.40
2016,08,13,10,47,21.40
2016,08,13,10,48,21.40
2016,08,13,10,49,21.40
2016,08,13,10,50,21.40
2016,08,13,10,51,21.50
2016,08,13,10,52,21.60
2016,08,13,10,53,21.50
2016,08,13,10,54,21.40
2016,08,13,10,55,21.40
2016,08,13,10,56,21.40
2016,08,13,10,57,21.30
2016,08,13,10,58,21.30
2016,08,13,10,59,21.20
2016,08,13,11,00,21.20
2016,08,13,11,01,21.10
2016,08,13,11,02,21.10
2016,08,13,11,03,21.10
2016,08,13,11,04,21.10
2016,08,13,11,05,21.10
2016,08,13,11,06,21.20
2016,08,13,11,07,21.20
2016,08,13,11,08,21.20
2016,08,13,11,09,21.20
2016,08,13,11,10,21.10
2016,08,13,11,11,21.10
2016,08,13,11,12,21.10
2016,08,13,11,13,21.10
2016,08,13,11,14,21.00
2016,08,13,11,15,20.90
2016,08,13,11,16,20.80
2016,08,13,11,17,20.70
2016,08,13,11,18,20.60
2016,08,13,11,19,20.50
2016,08,13,11,20,20.50
2016,08,13,11,21,20.40
2016,08,13,11,22,20.40
2016,08,13,11,23,20.40
2016,08,13,11,24,20.30
2016,08,13,11,25,20.30
2016,08,13,11,26,20.40
2016,08,13,11,27,20.40
2016,08,13,11,28,20.50
2016,08,13,11,29,20.60
2016,08,13,11,30,20.70
2016,08,13,11,31,20.80
2016,08,13,11,32,20.90
2016,08,13,11,33,21.00
2016,08,13,11,34,21.20
2016,08,13,11,35,21.20
2016,08,13,11,36,21.20
2016,08,13,11,37,21.30
2016,08,13,11,38,21.30
2016,08,13,11,39,21.40
2016,08,13,11,40,21.40
2016,08,13,11,41,21.40
2016,08,13,11,42,21.50
2016,08,13,11,43,21.50
2016,08,13,11,44,21.50
2016,08,13,11,45,21.60
2016,08,13,11,46,21.60
2016,08,13,11,47,21.60
2016,08,13,11,48,21.50
2016,08,13,11,49,21.50
2016,08,13,11,50,21.50
2016,08,13,11,51,21.40
2016,08,13,11,52,21.40
2016,08,13,11,53,21.30
2016,08,13,11,54,21.20
2016,08,13,11,55,21.10
2016,08,13,11,56,21.10
2016,08,13,11,57,21.10
2016,08,13,11,58,21.10
2016,08,13,11,59,21.10
2016,08,13,12,00,21.10
2016,08,13,12,01,21.10
2016,08,13,12,02,21.10
2016,08,13,12,03,21.10
2016,08,13,12,04,21.10
2016,08,13,12,05,21.10
2016,08,13,12,06,21.10
2016,08,13,12,07,21.00
2016,08,13,12,08,21.00
2016,08,13,12,09,20.90
2016,08,13,12,10,20.90
2016,08,13,12,11,21.00
2016,08,13,12,12,21.10
2016,08,13,12,13,21.10
2016,08,13,12,14,21.10
2016,08,13,12,15,21.10
2016,08,13,12,16,21.20
2016,08,13,12,17,21.20
2016,08,13,12,18,21.30
2016,08,13,12,19,21.40
2016,08,13,12,20,21.40
2016,08,13,12,21,21.30
2016,08,13,12,22,21.30
2016,08,13,12,23,21.30
2016,08,13,12,24,21.30
2016,08,13,12,25,21.30
2016,08,13,12,26,21.20
2016,08,13,12,27,21.10
2016,08,13,12,28,21.10
2016,08,13,12,29,21.10
2016,08,13,12,30,21.10
2016,08,13,12,31,21.10
2016,08,13,12,32,21.00
2016,08,13,12,33,20.90
2016,08,13,12,34,20.90
2016,08,13,12,35,20.90
2016,08,13,12,36,20.90
2016,08,13,12,37,20.90
2016,08,13,12,38,20.90
2016,08,13,12,39,21.00
2016,08,13,12,40,21.10
2016,08,13,12,41,21.10
2016,08,13,12,42,21.10
2016,08,13,12,43,21.20
2016,08,13,12,44,21.40
2016,08,13,12,45,21.60
2016,08,13,12,46,21.70
2016,08,13,12,47,21.70
2016,08,13,12,48,21.80
2016,08,13,12,49,21.80
2016,08,13,12,50,21.80
2016,08,13,12,51,21.70
2016,08,13,12,52,21.70
2016,08,13,12,53,21.70
2016,08,13,12,54,21.70
2016,08,13,12,55,21.70
2016,08,13,12,56,21.70
2016,08,13,12,57,21.80
2016,08,13,12,58,21.90
2016,08,13,12,59,21.90
2016,08,13,13,00,21.90
2016,08,13,13,01,21.90
2016,08,13,13,02,21.90
2016,08,13,13,03,21.90
2016,08,13,13,04,22.00
2016,08,13,13,05,22.00
2016,08,13,13,06,22.10
2016,08,13,13,07,22.20
2016,08,13,13,08,22.30
2016,08,13,13,09,22.40
2016,08,13,13,10,22.60
2016,08,13,13,11,22.60
2016,08,13,13,12,22.70
2016,08,13,13,13,22.80
2016,08,13,13,14,22.80
2016,08,13,13,15,22.90
2016,08,13,13,16,22.90
2016,08,13,13,17,22.90
2016,08,13,13,18,22.90
2016,08,13,13,19,23.00
2016,08,13,13,20,23.00
2016,08,13,13,21,23.10
2016,08,13,13,22,23.20
2016,08,13,13,23,23.30
2016,08,13,13,24,23.30
2016,08,13,13,25,23.40
2016,08,13,13,26,23.40
2016,08,13,13,27,23.30
2016,08,13,13,28,23.20
2016,08,13,13,29,23.20
2016,08,13,13,30,23.10
2016,08,13,13,31,23.10
2016,08,13,13,32,23.10
2016,08,13,13,33,23.20
2016,08,13,13,34,23.30
2016,08,13,13,35,23.30
2016,08,13,13,36,23.30
2016,08,13,13,37,23.30
2016,08,13,13,38,23.40
2016,08,13,13,39,23.40
2016,08,13,13,40,23.40
2016,08,13,13,41,23.40
2016,08,13,13,42,23.40
2016,08,13,13,43,23.40
2016,08,13,13,44,23.20
2016,08,13,13,45,23.20
2016,08,13,13,46,23.30
2016,08,13,13,47,23.20
2016,08,13,13,48,23.10
2016,08,13,13,49,23.10
2016,08,13,13,50,23.00
2016,08,13,13,51,23.00
2016,08,13,13,52,22.90
2016,08,13,13,53,22.90
2016,08,13,13,54,23.00
2016,08,13,13,55,23.20
2016,08,13,13,56,23.40
2016,08,13,13,57,23.60
2016,08,13,13,58,23.70
2016,08,13,13,59,23.60
2016,08,13,14,00,23.60
2016,08,13,14,01,23.50
2016,08,13,14,02,23.40
2016,08,13,14,03,23.40
2016,08,13,14,04,23.40
2016,08,13,14,05,23.30
2016,08,13,14,06,23.30
2016,08,13,14,07,23.40
2016,08,13,14,08,23.50
2016,08,13,14,09,23.50
2016,08,13,14,10,23.50
2016,08,13,14,11,23.50
2016,08,13,14,12,23.40
2016,08,13,14,13,23.40
2016,08,13,14,14,23.40
2016,08,13,14,15,23.50
2016,08,13,14,16,23.50
2016,08,13,14,17,23.60
2016,08,13,14,18,23.60
2016,08,13,14,19,23.70
2016,08,13,14,20,23.70
2016,08,13,14,21,23.80
2016,08,13,14,22,23.80
2016,08,13,14,23,23.80
2016,08,13,14,24,23.80
2016,08,13,14,25,23.80
2016,08,13,14,26,23.90
2016,08,13,14,27,23.90
2016,08,13,14,28,24.00
2016,08,13,14,29,24.00
2016,08,13,14,30,24.10
2016,08,13,14,31,24.10
2016,08,13,14,32,24.10
2016,08,13,14,33,24.10
2016,08,13,14,34,24.10
2016,08,13,14,35,24.10
2016,08,13,14,36,24.00
2016,08,13,14,37,24.10
2016,08,13,14,38,24.10
2016,08,13,14,39,24.20
2016,08,13,14,40,24.30
2016,08,13,14,41,24.30
2016,08,13,14,42,24.30
2016,08,13,14,43,24.40
2016,08,13,14,44,24.40
2016,08,13,14,45,24.40
2016,08,13,14,46,24.40
2016,08,13,14,47,24.40
2016,08,13,14,48,24.40
2016,08,13,14,49,24.40
2016,08,13,14,50,24.30
2016,08,13,14,51,24.30
2016,08,13,14,52,24.20
2016,08,13,14,53,24.20
2016,08,13,14,54,24.10
2016,08,13,14,55,24.00
2016,08,13,14,56,23.90
2016,08,13,14,57,23.80
2016,08,13,14,58,23.90
2016,08,13,14,59,23.90
2016,08,13,15,00,23.90
2016,08,13,15,01,23.90
2016,08,13,15,02,23.90
2016,08,13,15,03,23.90
2016,08,13,15,04,23.90
2016,08,13,15,05,23.90
2016,08,13,15,06,23.80
2016,08,13,15,07,23.80
2016,08,13,15,08,23.80
2016,08,13,15,09,23.90
2016,08,13,15,10,24.00
2016,08,13,15,11,24.00
2016,08,13,15,12,24.10
2016,08,13,15,13,24.20
2016,08,13,15,14,24.20
2016,08,13,15,15,24.30
2016,08,13,15,16,24.30
2016,08,13,15,17,24.40
2016,08,13,15,18,24.40
2016,08,13,15,19,24.40
2016,08,13,15,20,24.40
2016,08,13,15,21,24.50
2016,08,13,15,22,24.60
2016,08,13,15,23,24.60
2016,08,13,15,24,24.60
2016,08,13,15,25,24.50
2016,08,13,15,26,24.50
2016,08,13,15,27,24.70
2016,08,13,15,28,24.80
2016,08,13,15,29,24.90
2016,08,13,15,30,25.10
2016,08,13,15,31,25.20
2016,08,13,15,32,25.30
2016,08,13,15,33,25.30
2016,08,13,15,34,25.40
2016,08,13,15,35,25.40
2016,08,13,15,36,25.30
2016,08,13,15,37,25.20
2016,08,13,15,38,25.10
2016,08,13,15,39,25.00
2016,08,13,15,40,24.90
2016,08,13,15,41,24.80
2016,08,13,15,42,24.70
2016,08,13,15,43,24.70
2016,08,13,15,44,24.70
2016,08,13,15,45,24.80
2016,08,13,15,46,24.90
2016,08,13,15,47,24.90
2016,08,13,15,48,25.00
2016,08,13,15,49,25.10
2016,08,13,15,50,25.20
2016,08,13,15,51,25.20
2016,08,13,15,52,25.20
2016,08,13,15,53,25.20
2016,08,13,15,54,25.10
2016,08,13,15,55,25.00
2016,08,13,15,56,25.00
2016,08,13,15,57,24.90
2016,08,13,15,58,24.80
2016,08,13,15,59,24.80
2016,08,13,16,00,24.80
2016,08,13,16,01,24.80
2016,08,13,16,02,24.80
2016,08,13,16,03,24.90
2016,08,13,16,04,24.90
2016,08,13,16,05,24.90
2016,08,13,16,06,24.80
2016,08,13,16,07,24.80
2016,08,13,16,08,24.80
2016,08,13,16,09,24.80
2016,08,13,16,10,24.90
2016,08,13,16,11,25.00
2016,08,13,16,12,25.10
2016,08,13,16,13,25.20
2016,08,13,16,14,25.30
2016,08,13,16,15,25.30
2016,08,13,16,16,25.30
2016,08,13,16,17,25.40
2016,08,13,16,18,25.50
2016,08,13,16,19,25.60
2016,08,13,16,20,25.70
2016,08,13,16,21,25.80
2016,08,13,16,22,25.90
2016,08,13,16,23,25.90
2016,08,13,16,24,25.90
2016,08,13,16,25,25.90
2016,08,13,16,26,25.90
2016,08,13,16,27,25.90
2016,08,13,16,28,25.90
2016,08,13,16,29,25.90
2016,08,13,16,30,25.90
2016,08,13,16,31,25.90
2016,08,13,16,32,25.90
2016,08,13,16,33,26.00
2016,08,13,16,34,26.10
2016,08,13,16,35,26.10
2016,08,13,16,36,26.10
2016,08,13,16,37,26.10
2016,08,13,16,38,26.10
2016,08,13,16,39,26.10
2016,08,13,16,40,26.20
2016,08,13,16,41,26.20
2016,08,13,16,42,26.20
2016,08,13,16,43,26.20
2016,08,13,16,44,26.20
2016,08,13,16,45,26.20
2016,08,13,16,46,26.30
2016,08,13,16,47,26.30
2016,08,13,16,48,26.30
2016,08,13,16,49,26.40
2016,08,13,16,50,26.40
2016,08,13,16,51,26.40
2016,08,13,16,52,26.40
2016,08,13,16,53,26.40
2016,08,13,16,54,26.30
2016,08,13,16,55,26.30
2016,08,13,16,56,26.30
2016,08,13,16,57,26.30
2016,08,13,16,58,26.20
2016,08,13,16,59,26.20
2016,08,13,17,00,26.10
2016,08,13,17,01,26.10
2016,08,13,17,02,26.10
2016,08,13,17,03,26.00
2016,08,13,17,04,26.00
2016,08,13,17,05,25.90
2016,08,13,17,06,25.90
2016,08,13,17,07,25.90
2016,08,13,17,08,25.90
2016,08,13,17,09,25.90
2016,08,13,17,10,25.90
2016,08,13,17,11,26.00
2016,08,13,17,12,26.00
2016,08,13,17,13,26.00
2016,08,13,17,14,26.00
2016,08,13,17,15,26.00
2016,08,13,17,16,25.90
2016,08,13,17,17,25.90
2016,08,13,17,18,25.90
2016,08,13,17,19,26.00